CW4549 Weather Reports


time (UTC)temp
C
wind
direction
speed
KPH
gust
KPH
rain 1hr
cm
rain 24hr
cm
rain mn
cm
humidity
%
barometer
mb
20260503200016 16 158 3.2 16.1 0.00 0.00 0.00 37 1009.2
20260503194516 16 225 1.6 11.3 0.00 0.00 0.00 37 1009.5
20260503193016 16 180 1.6 20.9 0.00 0.00 0.00 33 1009.9
20260503191516 16 158 3.2 20.9 0.00 0.00 0.00 33 1010.2
20260503190016 17 158 3.2 17.7 0.00 0.00 0.00 37 1010.5
20260503184619 16 180 3.2 27.4 0.00 0.00 0.00 38 1010.6
20260503183017 16 158 4.8 17.7 0.00 0.00 0.00 36 1010.9
20260503181518 16 225 3.2 14.5 0.00 0.00 0.00 38 1011.1
20260503180016 16 158 3.2 43.5 0.00 0.00 0.00 36 1011.2
20260503174516 16 225 3.2 17.7 0.00 0.00 0.00 33 1011.3
20260503173016 16 158 4.8 17.7 0.00 0.00 0.00 33 1011.7
20260503171516 16 158 4.8 19.3 0.00 0.00 0.00 35 1011.8
20260503081518 2 0.0 0.0 0.00 0.00 0.00 95 1012.1
20260503071517 2 0.0 0.0 0.00 0.00 0.00 95 1011.8
20260503054537 2 0.0 0.0 0.00 0.00 0.00 90 1012.4
20260503053037 2 0.0 0.0 0.00 0.00 0.00 89 1012.4
20260503051517 2 0.0 0.0 0.00 0.00 0.00 89 1012.3
20260503050038 2 0.0 0.0 0.00 0.00 0.00 88 1012.3
20260503044519 3 0.0 0.0 0.00 0.00 0.00 87 1012.4
20260503043017 3 0.0 0.0 0.00 0.00 0.00 86 1012.3
20260503041517 3 0.0 0.0 0.00 0.00 0.00 86 1012.4
20260503040017 3 0.0 0.0 0.00 0.00 0.00 85 1012.5
20260503034537 3 0.0 0.0 0.00 0.00 0.00 85 1012.6
20260503033015 3 0.0 0.0 0.00 0.00 0.00 83 1012.5
20260503031517 3 0.0 0.0 0.00 0.00 0.00 81 1012.6
20260503030015 4 0.0 0.0 0.00 0.00 0.00 80 1012.7
20260503024517 4 0.0 0.0 0.00 0.00 0.00 78 1012.6
20260503023016 5 0.0 0.0 0.00 0.00 0.00 76 1012.6
20260503021516 5 0.0 0.0 0.00 0.00 0.00 75 1012.4
20260503020016 5 0.0 0.0 0.00 0.00 0.00 74 1012.3
20260503014536 6 0.0 0.0 0.00 0.00 0.00 72 1012.3
20260503013016 6 0.0 0.0 0.00 0.00 0.00 70 1012.1
20260503011536 7 0.0 0.0 0.00 0.00 0.00 68 1011.8
20260503010017 7 0.0 0.0 0.00 0.00 0.00 64 1011.8
20260503004516 8 0.0 0.0 0.00 0.00 0.00 59 1011.7
20260503003016 8 0.0 6.4 0.00 0.00 0.00 52 1011.5
20260503001516 9 0.0 4.8 0.00 0.00 0.00 50 1011.4
20260503000016 10 0.0 8.0 0.00 0.00 0.00 50 1011.3
20260502234656 10 0.0 4.8 0.00 0.00 0.00 45 1011.2
20260502233036 11 45 1.6 11.3 0.00 0.00 0.00 43 1011.0
20260502231516 11 45 1.6 12.9 0.00 0.00 0.00 42 1011.0
20260502230016 11 68 1.6 11.3 0.00 0.00 0.00 42 1011.0
20260502224517 11 0.0 12.9 0.00 0.00 0.00 42 1010.9
20260502223016 11 0.0 9.7 0.00 0.00 0.00 42 1011.0
20260502221558 11 45 1.6 17.7 0.00 0.00 0.00 41 1010.8
20260502220017 11 45 1.6 12.9 0.00 0.00 0.00 39 1010.7
20260502214537 11 45 1.6 17.7 0.00 0.00 0.00 41 1010.7
20260502213038 12 90 1.6 19.3 0.00 0.00 0.00 41 1010.7
20260502211516 12 0.0 11.3 0.00 0.00 0.00 39 1010.6
20260502210036 12 45 1.6 12.9 0.00 0.00 0.00 38 1010.5
20260502204516 12 90 1.6 16.1 0.00 0.00 0.00 38 1010.6
20260502203016 12 45 1.6 17.7 0.00 0.00 0.00 36 1010.5
20260502201516 12 113 1.6 11.3 0.00 0.00 0.00 41 1010.7